Regional Weather Roundup
Issued by NWS

Home | Current Version | Previous Version | Graphics & Text | Print | Product List | Glossary Off
Versions: 1 2 3 4 5 6 7 8 9 10 11 12 13 14 15 16 17 18 19 20 21 22 23 24 25 26 27 28 29 30 31 32 33 34 35 36 37 38 39 40 41 42 43 44 45 46 47 48 49 50

000
ASUS43 KDMX 170207
RWRIA

WEATHER ROUNDUP FOR IOWA
NATIONAL WEATHER SERVICE DES MOINES IA
900 PM CDT TUE SEP 16 2014

NOTE: "FAIR" INDICATES FEW OR NO CLOUDS BELOW 12,000 FEET WITH NO
SIGNIFICANT WEATHER AND/OR OBSTRUCTIONS TO VISIBILITY.

* - THESE STATIONS ARE NOT NWS STATIONS...THUS NOT UNDER NWS
QUALITY CONTROL.  THEY ALSO DO NOT REPORT WEATHER SUCH
AS PRECIPITATION OR FOG.

IAZ001>003-012>014-020>022-031>034-043>046-170300-
   NORTHWEST IOWA

CITY           SKY/WX    TMP DP  RH WIND       PRES   REMARKS
CARROLL *      CLEAR     52  50  93 S3        30.04S
CHEROKEE *     CLEAR     54  50  87 S3        30.02S
DENISON *      CLEAR     54  52  94 SE6       30.02S
LE MARS *        N/A     55  50  82 S3        30.01S
ORANGE CITY *  CLEAR     61  50  67 S6        30.01S
SHELDON *      CLOUDY    54  50  87 S6        30.00S
SIOUX CITY     PTCLDY    57  50  77 E7        30.01F
SPENCER        CLEAR     53  48  83 S6        30.02S
STORM LAKE *   CLEAR     52  52 100 S8        30.03S
$$

IAZ055>058-069>071-079>083-090>094-170300-
   SOUTHWEST IOWA

CITY           SKY/WX    TMP DP  RH WIND       PRES   REMARKS
ATLANTIC *     CLEAR     55  50  82 CALM      30.04R
AUDUBON *      CLEAR     50  45  81 CALM      30.05S
CLARINDA *     PTCLDY    54  52  94 CALM      30.07S
COUNCIL BLFS * CLOUDY    61  54  77 SE5       30.02S
CRESTON *      CLEAR     54  50  87 SE3       30.07R
HARLAN  *      CLEAR     54  50  87 CALM      30.07S
LAMONI         CLEAR     58  49  72 SE3       30.06S
SHENANDOAH *   CLOUDY    61  54  77 VRB3      30.05R
$$

IAZ047>049-059>061-072>074-084-170300-
   CENTRAL IOWA

CITY           SKY/WX    TMP DP  RH WIND       PRES   REMARKS
AMES           CLEAR     50  48  93 SE3       30.06R
ANKENY *       CLEAR     52  50  93 CALM      30.06S
CHARITON *     CLEAR     55  50  82 SE5       30.07S
DES MOINES     CLEAR     60  49  66 SE6       30.06R
GRINNELL*      CLEAR     52  46  82 CALM      30.08R
KNOXVILLE *    CLEAR     57  50  77 SE6       30.05F
MARSHALLTOWN   CLEAR     54  45  71 S3        30.06S
PELLA *        CLEAR     53  49  86 SE3       30.08S
PERRY *          N/A     53  49  88 S5        30.05S
$$

IAZ004>006-015-016-023>025-035-036-170300-
   NORTH CENTRAL IOWA

CITY           SKY/WX    TMP DP  RH WIND       PRES   REMARKS
ALGONA *       CLEAR     55  48  76 S7        30.04S
CLARION *        N/A     54  46  76 S7        30.05S
ESTHERVILLE    CLOUDY    56  50  80 S5        30.02
FORT DODGE *   CLEAR     55  46  71 S5        30.05S
MASON CITY     CLEAR     50  47  89 S5        30.06S
FOREST CITY *    N/A     50  46  87 SE3       30.04F
IOWA FALLS *     N/A     52  46  82 S5        30.07S
$$

IAZ007>011-017>019-026>030-037>042-050>054-066-170300-
   NORTHEAST IOWA

CITY           SKY/WX    TMP DP  RH WIND       PRES   REMARKS
CEDAR RAPIDS   CLEAR     50  46  86 E5        30.07S
CHARLES CITY * CLEAR     52  46  82 S5        30.07S
CLINTON *      CLEAR     52  45  76 S5        30.11S
DECORAH *      CLEAR     52  45  76 CALM      30.06S
DUBUQUE        CLEAR     51  45  79 CALM      30.08F
MONTICELLO *   CLEAR     48  46  93 CALM      30.08S
OELWEIN *      CLEAR     52  46  82 SE5       30.08S
WATERLOO       CLEAR     53  46  77 CALM      30.06S
$$

IAZ064-065-067-068-078-170300-
   EAST CENTRAL IOWA

CITY           SKY/WX    TMP DP  RH WIND       PRES   REMARKS
DAVENPORT      CLEAR     52  43  71 SE5       30.09S
IOWA CITY      CLEAR     53  49  86 CALM      30.09R
MT. PLEASANT * CLEAR     52  47  82 CALM      30.09R
MUSCATINE *    CLEAR     54  48  82 CALM      30.09S
QUAD CITIES    CLEAR     51  47  86 CALM      30.09S
$$

IAZ062-063-075>077-085>089-095>099-170300-
   SOUTHEAST IOWA

CITY           SKY/WX    TMP DP  RH WIND       PRES   REMARKS
BURLINGTON     CLEAR     53  50  89 CALM      30.08S
FAIRFIELD *    CLEAR     52  46  82 CALM      30.08S
FORT MADISON * CLEAR     54  50  87 CALM      30.09S
KEOKUK *       CLEAR     54  52  94 CALM      30.08R FOG
OSKALOOSA *      N/A     55  48  76 SE5       30.08S
CENTERVILLE *  CLEAR     50  50 100 E3        30.09S
OTTUMWA        CLEAR     52  49  89 SE5       30.07S
WASHINGTON *   CLEAR     54  48  82 CALM      30.08S
$$

ABBREVIATIONS USED IN REMARKS
   TC - TEMPERATURES IN CELSIUS
  WCI - WIND CHILL INDEX
   HX - HEAT INDEX
  VSB - VISIBILITY
$$



USA.gov is the U.S. government's official web portal to all federal, state and local government web resources and services.